Time,TemperatureF,DewpointF,PressureIn,WindDirection,WindDirectionDegrees,WindSpeedMPH,WindSpeedGustMPH,Humidity,HourlyPrecipIn,Conditions,Clouds,dailyrainin,SolarRadiationWatts/m^2,SoftwareType,DateUTC
2013-05-02 00:03:00,63.0,37.0,-100.00,NE,49,3.0,8.0,38,0.00,,,0.00,0.000000,,2013-05-02 04:03:00,
2013-05-02 00:12:00,63.0,37.0,-100.00,NE,49,3.0,8.0,38,0.00,,,0.00,0.000000,,2013-05-02 04:12:00,
2013-05-02 00:43:00,63.0,33.0,-100.00,NNW,343,3.0,10.0,33,0.00,,,0.00,0.000000,,2013-05-02 04:43:00,
2013-05-02 00:52:00,63.0,33.0,-100.00,NNW,343,3.0,10.0,33,0.00,,,0.00,0.000000,,2013-05-02 04:52:00,
2013-05-02 01:02:00,63.0,33.0,-100.00,NNW,343,3.0,10.0,33,0.00,,,0.00,0.000000,,2013-05-02 05:02:00,
2013-05-02 01:12:00,63.0,33.0,-100.00,NNW,343,3.0,10.0,33,0.00,,,0.00,0.000000,,2013-05-02 05:12:00,
2013-05-02 01:42:00,60.0,35.0,-100.00,NNE,23,3.0,11.0,39,0.00,,,0.00,0.000000,,2013-05-02 05:42:00,
2013-05-02 01:52:00,60.0,35.0,-100.00,NNE,23,3.0,11.0,39,0.00,,,0.00,0.000000,,2013-05-02 05:52:00,
2013-05-02 02:01:00,60.0,35.0,-100.00,NNE,23,3.0,11.0,39,0.00,,,0.00,0.000000,,2013-05-02 06:01:00,
2013-05-02 02:12:00,60.0,35.0,-100.00,NNE,23,3.0,11.0,39,0.00,,,0.00,0.000000,,2013-05-02 06:12:00,
2013-05-02 02:42:00,55.0,39.0,-100.00,ESE,103,2.0,7.0,54,0.00,,,0.00,0.000000,,2013-05-02 06:42:00,
2013-05-02 02:52:00,55.0,39.0,-100.00,ESE,103,2.0,7.0,54,0.00,,,0.00,0.000000,,2013-05-02 06:52:00,
2013-05-02 03:02:00,55.0,39.0,-100.00,ESE,103,2.0,7.0,54,0.00,,,0.00,0.000000,,2013-05-02 07:02:00,
2013-05-02 03:11:00,55.0,39.0,-100.00,ESE,103,2.0,7.0,54,0.00,,,0.00,0.000000,,2013-05-02 07:11:00,
2013-05-02 03:42:00,51.0,39.0,-100.00,ESE,108,1.0,4.0,64,0.00,,,0.00,0.000000,,2013-05-02 07:42:00,
2013-05-02 03:52:00,51.0,39.0,-100.00,ESE,108,1.0,4.0,64,0.00,,,0.00,0.000000,,2013-05-02 07:52:00,
2013-05-02 04:02:00,51.0,39.0,-100.00,ESE,108,1.0,4.0,64,0.00,,,0.00,0.000000,,2013-05-02 08:02:00,
2013-05-02 04:11:00,51.0,39.0,-100.00,ESE,108,1.0,4.0,64,0.00,,,0.00,0.000000,,2013-05-02 08:11:00,
2013-05-02 04:42:00,49.0,40.0,-100.00,SSE,166,1.0,4.0,71,0.00,,,0.00,0.000000,,2013-05-02 08:42:00,
2013-05-02 04:52:00,49.0,40.0,-100.00,SSE,166,1.0,4.0,71,0.00,,,0.00,0.000000,,2013-05-02 08:52:00,
2013-05-02 05:02:00,49.0,40.0,-100.00,SSE,166,1.0,4.0,71,0.00,,,0.00,0.000000,,2013-05-02 09:02:00,
2013-05-02 05:12:00,49.0,40.0,-100.00,SSE,166,1.0,4.0,71,0.00,,,0.00,0.000000,,2013-05-02 09:12:00,
2013-05-02 05:43:00,47.0,41.0,-100.00,East,92,0.0,2.0,80,0.00,,,0.00,0.000000,,2013-05-02 09:43:00,
2013-05-02 05:52:00,47.0,41.0,-100.00,East,92,0.0,2.0,80,0.00,,,0.00,0.000000,,2013-05-02 09:52:00,
2013-05-02 06:03:00,47.0,41.0,-100.00,East,92,0.0,2.0,80,0.00,,,0.00,0.000000,,2013-05-02 10:03:00,
2013-05-02 06:12:00,47.0,41.0,-100.00,East,92,0.0,2.0,80,0.00,,,0.00,0.000000,,2013-05-02 10:12:00,
2013-05-02 06:42:00,46.0,41.0,-100.00,ENE,72,0.0,4.0,82,0.00,,,0.00,0.000000,,2013-05-02 10:42:00,
2013-05-02 06:53:00,46.0,41.0,-100.00,ENE,72,0.0,4.0,82,0.00,,,0.00,0.000000,,2013-05-02 10:53:00,
2013-05-02 07:02:00,46.0,41.0,-100.00,ENE,72,0.0,4.0,82,0.00,,,0.00,0.000000,,2013-05-02 11:02:00,
2013-05-02 07:12:00,46.0,41.0,-100.00,ENE,72,0.0,4.0,82,0.00,,,0.00,0.000000,,2013-05-02 11:12:00,
2013-05-02 07:42:00,50.0,45.0,-100.00,WNW,299,0.0,2.0,84,0.00,,,0.00,41.000000,,2013-05-02 11:42:00,
2013-05-02 07:52:00,50.0,45.0,-100.00,WNW,299,0.0,2.0,84,0.00,,,0.00,41.000000,,2013-05-02 11:52:00,
2013-05-02 08:01:00,50.0,45.0,-100.00,WNW,299,0.0,2.0,84,0.00,,,0.00,41.000000,,2013-05-02 12:01:00,
2013-05-02 08:12:00,50.0,45.0,-100.00,WNW,299,0.0,2.0,84,0.00,,,0.00,41.000000,,2013-05-02 12:12:00,
2013-05-02 08:42:00,61.0,43.0,-100.00,East,80,4.0,10.0,52,0.00,,,0.00,194.000000,,2013-05-02 12:42:00,
2013-05-02 08:52:00,61.0,43.0,-100.00,East,80,4.0,10.0,52,0.00,,,0.00,194.000000,,2013-05-02 12:52:00,
2013-05-02 09:01:00,61.0,43.0,-100.00,East,80,4.0,10.0,52,0.00,,,0.00,194.000000,,2013-05-02 13:01:00,
2013-05-02 09:11:00,61.0,43.0,-100.00,East,80,4.0,10.0,52,0.00,,,0.00,194.000000,,2013-05-02 13:11:00,
2013-05-02 09:42:00,65.0,41.0,-100.00,East,95,5.0,9.0,42,0.00,,,0.00,385.000000,,2013-05-02 13:42:00,
2013-05-02 09:52:00,65.0,41.0,-100.00,East,95,5.0,9.0,42,0.00,,,0.00,385.000000,,2013-05-02 13:52:00,
2013-05-02 10:02:00,65.0,41.0,-100.00,East,95,5.0,9.0,42,0.00,,,0.00,385.000000,,2013-05-02 14:02:00,
2013-05-02 10:11:00,65.0,41.0,-100.00,East,95,5.0,9.0,42,0.00,,,0.00,385.000000,,2013-05-02 14:11:00,
2013-05-02 10:43:00,70.0,44.0,-100.00,ESE,106,3.0,9.0,39,0.00,,,0.00,546.000000,,2013-05-02 14:43:00,
2013-05-02 10:52:00,70.0,44.0,-100.00,ESE,106,3.0,9.0,39,0.00,,,0.00,546.000000,,2013-05-02 14:52:00,
2013-05-02 11:02:00,70.0,44.0,-100.00,ESE,106,3.0,9.0,39,0.00,,,0.00,546.000000,,2013-05-02 15:02:00,
2013-05-02 11:12:00,70.0,44.0,-100.00,ESE,106,3.0,9.0,39,0.00,,,0.00,546.000000,,2013-05-02 15:12:00,
2013-05-02 11:43:00,72.0,44.0,-100.00,North,3,3.0,10.0,37,0.00,,,0.00,584.000000,,2013-05-02 15:43:00,
2013-05-02 12:03:00,72.0,44.0,-100.00,North,3,3.0,10.0,37,0.00,,,0.00,584.000000,,2013-05-02 16:03:00,
2013-05-02 12:13:00,72.0,44.0,-100.00,North,3,3.0,10.0,37,0.00,,,0.00,584.000000,,2013-05-02 16:13:00,
2013-05-02 12:32:00,74.0,45.0,-100.00,NW,322,4.0,10.0,36,0.00,,,0.00,653.000000,,2013-05-02 16:32:00,
2013-05-02 12:43:00,74.0,45.0,-100.00,NW,322,4.0,10.0,36,0.00,,,0.00,653.000000,,2013-05-02 16:43:00,
2013-05-02 12:52:00,74.0,45.0,-100.00,NW,322,4.0,10.0,36,0.00,,,0.00,653.000000,,2013-05-02 16:52:00,
2013-05-02 13:02:00,74.0,45.0,-100.00,NW,322,4.0,10.0,36,0.00,,,0.00,653.000000,,2013-05-02 17:02:00,
2013-05-02 13:12:00,74.0,45.0,-100.00,NW,322,4.0,10.0,36,0.00,,,0.00,653.000000,,2013-05-02 17:12:00,
2013-05-02 13:32:00,75.0,45.0,-100.00,NE,44,4.0,10.0,34,0.00,,,0.00,671.000000,,2013-05-02 17:32:00,
2013-05-02 13:42:00,75.0,45.0,-100.00,NE,44,4.0,10.0,34,0.00,,,0.00,671.000000,,2013-05-02 17:42:00,
2013-05-02 13:52:00,75.0,45.0,-100.00,NE,44,4.0,10.0,34,0.00,,,0.00,671.000000,,2013-05-02 17:52:00,
2013-05-02 14:01:00,75.0,45.0,-100.00,NE,44,4.0,10.0,34,0.00,,,0.00,671.000000,,2013-05-02 18:01:00,
2013-05-02 14:12:00,75.0,45.0,-100.00,NE,44,4.0,10.0,34,0.00,,,0.00,671.000000,,2013-05-02 18:12:00,
2013-05-02 14:42:00,79.0,47.0,-100.00,NW,324,4.0,11.0,33,0.00,,,0.00,682.000000,,2013-05-02 18:42:00,
2013-05-02 14:52:00,79.0,47.0,-100.00,NW,324,4.0,11.0,33,0.00,,,0.00,682.000000,,2013-05-02 18:52:00,
2013-05-02 15:01:00,79.0,47.0,-100.00,NW,324,4.0,11.0,33,0.00,,,0.00,682.000000,,2013-05-02 19:01:00,
2013-05-02 15:11:00,79.0,47.0,-100.00,NW,324,4.0,11.0,33,0.00,,,0.00,682.000000,,2013-05-02 19:11:00,
2013-05-02 15:42:00,78.0,47.0,-100.00,ESE,115,2.0,9.0,33,0.00,,,0.00,514.000000,,2013-05-02 19:42:00,
2013-05-02 15:52:00,78.0,47.0,-100.00,ESE,115,2.0,9.0,33,0.00,,,0.00,514.000000,,2013-05-02 19:52:00,
2013-05-02 16:02:00,78.0,47.0,-100.00,ESE,115,2.0,9.0,33,0.00,,,0.00,514.000000,,2013-05-02 20:02:00,
2013-05-02 16:11:00,78.0,47.0,-100.00,ESE,115,2.0,9.0,33,0.00,,,0.00,514.000000,,2013-05-02 20:11:00,
2013-05-02 16:42:00,80.0,46.0,-100.00,WSW,250,4.0,10.0,30,0.00,,,0.00,652.000000,,2013-05-02 20:42:00,
2013-05-02 16:52:00,80.0,46.0,-100.00,WSW,250,4.0,10.0,30,0.00,,,0.00,652.000000,,2013-05-02 20:52:00,
2013-05-02 17:01:00,80.0,46.0,-100.00,WSW,250,4.0,10.0,30,0.00,,,0.00,652.000000,,2013-05-02 21:01:00,
2013-05-02 17:12:00,80.0,46.0,-100.00,WSW,250,4.0,10.0,30,0.00,,,0.00,652.000000,,2013-05-02 21:12:00,
2013-05-02 17:42:00,80.0,47.0,-100.00,WNW,294,5.0,10.0,32,0.00,,,0.00,453.000000,,2013-05-02 21:42:00,
2013-05-02 17:53:00,80.0,47.0,-100.00,WNW,294,5.0,10.0,32,0.00,,,0.00,453.000000,,2013-05-02 21:53:00,
2013-05-02 18:03:00,80.0,47.0,-100.00,WNW,294,5.0,10.0,32,0.00,,,0.00,453.000000,,2013-05-02 22:03:00,
2013-05-02 18:12:00,80.0,47.0,-100.00,WNW,294,5.0,10.0,32,0.00,,,0.00,453.000000,,2013-05-02 22:12:00,
2013-05-02 18:42:00,75.0,44.0,-100.00,West,273,5.0,9.0,33,0.00,,,0.00,221.000000,,2013-05-02 22:42:00,
2013-05-02 18:53:00,75.0,44.0,-100.00,West,273,5.0,9.0,33,0.00,,,0.00,221.000000,,2013-05-02 22:53:00,
2013-05-02 19:02:00,75.0,44.0,-100.00,West,273,5.0,9.0,33,0.00,,,0.00,221.000000,,2013-05-02 23:02:00,
2013-05-02 19:12:00,75.0,44.0,-100.00,West,273,5.0,9.0,33,0.00,,,0.00,221.000000,,2013-05-02 23:12:00,
2013-05-02 19:32:00,72.0,49.0,-100.00,NW,308,1.0,5.0,45,0.00,,,0.00,71.000000,,2013-05-02 23:32:00,
2013-05-02 19:42:00,72.0,49.0,-100.00,NW,308,1.0,5.0,45,0.00,,,0.00,71.000000,,2013-05-02 23:42:00,
2013-05-02 19:52:00,72.0,49.0,-100.00,NW,308,1.0,5.0,45,0.00,,,0.00,71.000000,,2013-05-02 23:52:00,
2013-05-02 20:01:00,72.0,49.0,-100.00,NW,308,1.0,5.0,45,0.00,,,0.00,71.000000,,2013-05-03 00:01:00,
2013-05-02 20:11:00,72.0,49.0,-100.00,NW,308,1.0,5.0,45,0.00,,,0.00,71.000000,,2013-05-03 00:11:00,
2013-05-02 20:42:00,68.0,52.0,-100.00,WNW,288,1.0,2.0,57,0.00,,,0.00,14.000000,,2013-05-03 00:42:00,
2013-05-02 20:52:00,68.0,52.0,-100.00,WNW,288,1.0,2.0,57,0.00,,,0.00,14.000000,,2013-05-03 00:52:00,
2013-05-02 21:01:00,68.0,52.0,-100.00,WNW,288,1.0,2.0,57,0.00,,,0.00,14.000000,,2013-05-03 01:01:00,
2013-05-02 21:11:00,68.0,52.0,-100.00,WNW,288,1.0,2.0,57,0.00,,,0.00,14.000000,,2013-05-03 01:11:00,
2013-05-02 21:32:00,69.0,51.0,-100.00,West,275,4.0,7.0,53,0.00,,,0.00,0.000000,,2013-05-03 01:32:00,
2013-05-02 21:42:00,69.0,51.0,-100.00,West,275,4.0,7.0,53,0.00,,,0.00,0.000000,,2013-05-03 01:42:00,
2013-05-02 21:52:00,69.0,51.0,-100.00,West,275,4.0,7.0,53,0.00,,,0.00,0.000000,,2013-05-03 01:52:00,
2013-05-02 22:02:00,69.0,51.0,-100.00,West,275,4.0,7.0,53,0.00,,,0.00,0.000000,,2013-05-03 02:02:00,
2013-05-02 22:11:00,69.0,51.0,-100.00,West,275,4.0,7.0,53,0.00,,,0.00,0.000000,,2013-05-03 02:11:00,
2013-05-02 22:32:00,66.0,45.0,-100.00,ESE,116,3.0,7.0,47,0.00,,,0.00,0.000000,,2013-05-03 02:32:00,
2013-05-02 22:42:00,66.0,45.0,-100.00,ESE,116,3.0,7.0,47,0.00,,,0.00,0.000000,,2013-05-03 02:42:00,
2013-05-02 22:52:00,66.0,45.0,-100.00,ESE,116,3.0,7.0,47,0.00,,,0.00,0.000000,,2013-05-03 02:52:00,
2013-05-02 23:01:00,66.0,45.0,-100.00,ESE,116,3.0,7.0,47,0.00,,,0.00,0.000000,,2013-05-03 03:01:00,
2013-05-02 23:11:00,66.0,45.0,-100.00,ESE,116,3.0,7.0,47,0.00,,,0.00,0.000000,,2013-05-03 03:11:00,
2013-05-02 23:33:00,65.0,47.0,-100.00,West,278,3.0,10.0,52,0.00,,,0.00,0.000000,,2013-05-03 03:33:00,
2013-05-02 23:43:00,65.0,47.0,-100.00,West,278,3.0,10.0,52,0.00,,,0.00,0.000000,,2013-05-03 03:43:00,
2013-05-02 23:53:00,65.0,47.0,-100.00,West,278,3.0,10.0,52,0.00,,,0.00,0.000000,,2013-05-03 03:53:00,